Weather History for Lancaster, SC

Change the Weather History Date:

Saturday, November 19, 2011

  Actual Average (KUZA) Record (KUZA)
Temperature  
Mean Temperature 43 °F -  
Max Temperature 62 °F 64 °F 77 °F (1963)
Min Temperature 24 °F 41 °F 19 °F (2008)
Degree Days  
Heating Degree Days 22    
Moisture  
Dew Point 35 °F    
Average Humidity 80    
Maximum Humidity 100    
Minimum Humidity 44    
Precipitation  
Precipitation 0.00 in - - ()
Sea Level Pressure  
Sea Level Pressure 30.41 in    
Wind  
Wind Speed 0 mph (NE)    
Max Wind Speed 4 mph    
Max Gust Speed -    
Visibility 10 miles    
Events Rain    
Averages and records for this station are not official NWS values.
T = Trace of Precipitation, MM = Missing Value Source: NWS Daily Summary

Daily Weather History Graph

Daily Weather History Graph

Search for Another Location

Airport:

Trip Planner

Search our weather history database for the weather conditions in past years. The results will help you decide how hot, cold, wet, or windy it might be!

Date:

Astronomy

Nov. 19, 2011 Rise Set
Actual Time 7:00 AM EST 5:16 PM EST
Civil Twilight 6:33 AM EST 5:43 PM EST
Nautical Twilight 6:03 AM EST 6:13 PM EST
Astronomical Twilight 5:33 AM EST 6:43 PM EST
Moon 12:35 AM EST (11/19) 1:19 PM EST (11/19)
Length of Visible Light 11h 09m
Length of Day
10h 15m
Last Quarter, 38% of the Moon is Illuminated
Nov 19
Last Quarter
Nov 25
New
Dec 2
First Quarter
Dec 10
Full
Dec 17
Last Quarter

Hourly Weather History & Observations

Time (EST) Temp. Windchill Dew Point Humidity Pressure Visibility Wind Dir Wind Speed Gust Speed Precip Events Conditions
12:15 AM 26.6 °F - 26.6 °F 100% 30.45 in 10.0 mi Calm Calm - N/A Rain Light Freezing Rain
12:35 AM 26.6 °F - 26.6 °F 100% 30.45 in 10.0 mi Calm Calm - N/A   Clear
12:55 AM 26.6 °F - 26.6 °F 100% 30.44 in 10.0 mi Calm Calm - N/A   Clear
1:15 AM 26.6 °F - 26.6 °F 100% 30.45 in 10.0 mi Calm Calm - N/A Rain Light Freezing Rain
1:35 AM 26.6 °F - 26.6 °F 100% 30.44 in 10.0 mi Calm Calm - N/A   Clear
1:55 AM 26.6 °F - 26.6 °F 100% 30.44 in 10.0 mi Calm Calm - N/A Rain Light Freezing Rain
2:15 AM 26.6 °F - 26.6 °F 100% 30.44 in 10.0 mi Calm Calm - N/A   Clear
2:35 AM 26.6 °F - 26.6 °F 100% 30.44 in 10.0 mi Calm Calm - N/A   Clear
2:55 AM 26.6 °F - 26.6 °F 100% 30.44 in 10.0 mi Calm Calm - N/A   Clear
3:15 AM 24.8 °F - 24.8 °F 100% 30.44 in 10.0 mi Calm Calm - N/A   Clear
3:35 AM 24.8 °F - 24.8 °F 100% 30.43 in 10.0 mi Calm Calm - N/A   Clear
3:55 AM 24.8 °F - 24.8 °F 100% 30.43 in 10.0 mi Calm Calm - N/A   Clear
4:15 AM 24.8 °F - 24.8 °F 100% 30.43 in 10.0 mi Calm Calm - N/A   Clear
4:35 AM 24.8 °F - 24.8 °F 100% 30.43 in 10.0 mi Calm Calm - N/A   Clear
4:55 AM 24.8 °F - 24.8 °F 100% 30.43 in 10.0 mi Calm Calm - N/A   Clear
5:15 AM 26.6 °F - 26.6 °F 100% 30.43 in 10.0 mi Calm Calm - N/A   Clear
5:35 AM 26.6 °F - 26.6 °F 100% 30.44 in 10.0 mi Calm Calm - N/A   Clear
5:55 AM 26.6 °F - 26.6 °F 100% 30.44 in 10.0 mi Calm Calm - N/A   Clear
6:15 AM 26.6 °F - 26.6 °F 100% 30.45 in 10.0 mi Calm Calm - N/A   Clear
6:35 AM 26.6 °F - 26.6 °F 100% 30.45 in 10.0 mi Calm Calm - N/A   Clear
7:15 AM 26.6 °F - 26.6 °F 100% 30.46 in 10.0 mi Calm Calm - N/A   Clear
7:35 AM 26.6 °F - 26.6 °F 100% 30.46 in 10.0 mi Calm Calm - N/A   Clear
7:55 AM 28.4 °F - 28.4 °F 100% 30.46 in 10.0 mi Calm Calm - N/A   Partly Cloudy
8:15 AM 32.0 °F - 28.4 °F 87% 30.47 in 10.0 mi Calm Calm - N/A   Scattered Clouds
8:35 AM 32.0 °F 28.7 °F 28.4 °F 87% 30.47 in 10.0 mi NE 3.5 mph - N/A   Mostly Cloudy
8:55 AM 35.6 °F - 30.2 °F 81% 30.48 in 10.0 mi Calm Calm - N/A   Overcast
9:15 AM 37.4 °F - 32.0 °F 81% 30.47 in 10.0 mi Calm Calm - N/A   Overcast
9:35 AM 39.2 °F - 32.0 °F 75% 30.47 in 10.0 mi Calm Calm - N/A   Overcast
9:55 AM 39.2 °F - 32.0 °F 75% 30.47 in 10.0 mi Calm Calm - N/A   Overcast
10:15 AM 41.0 °F - 32.0 °F 70% 30.48 in 10.0 mi Calm Calm - N/A   Overcast
10:35 AM 44.6 °F - 32.0 °F 61% 30.47 in 10.0 mi Calm Calm - N/A   Overcast
10:55 AM 46.4 °F - 32.0 °F 57% 30.46 in 10.0 mi Calm Calm - N/A   Overcast
11:15 AM 46.4 °F - 32.0 °F 57% 30.46 in 10.0 mi Calm Calm - N/A   Overcast
11:55 AM 53.6 °F - 32.0 °F 44% 30.43 in 10.0 mi Calm Calm - N/A   Scattered Clouds
12:15 PM 53.6 °F - 33.8 °F 47% 30.42 in 10.0 mi Calm Calm - N/A   Mostly Cloudy
12:35 PM 55.4 °F - 33.8 °F 44% 30.41 in 10.0 mi Calm Calm - N/A   Partly Cloudy
12:55 PM 57.2 °F - 35.6 °F 44% 30.40 in 10.0 mi Calm Calm - N/A   Clear
1:15 PM 57.2 °F - 35.6 °F 44% 30.39 in 10.0 mi Calm Calm - N/A   Partly Cloudy
1:35 PM 59.0 °F - 37.4 °F 45% 30.38 in 10.0 mi Calm Calm - N/A   Scattered Clouds
1:55 PM 59.0 °F - 39.2 °F 48% 30.37 in 10.0 mi Calm Calm - N/A   Partly Cloudy
2:35 PM 60.8 °F - 41.0 °F 48% 30.35 in 10.0 mi Calm Calm - N/A   Scattered Clouds
2:55 PM 62.6 °F - 41.0 °F 45% 30.35 in 10.0 mi Calm Calm - N/A   Scattered Clouds
3:15 PM 62.6 °F - 41.0 °F 45% 30.35 in 10.0 mi Calm Calm - N/A   Mostly Cloudy
3:35 PM 62.6 °F - 44.6 °F 52% 30.35 in 10.0 mi Calm Calm - N/A   Mostly Cloudy
3:55 PM 60.8 °F - 44.6 °F 55% 30.34 in 10.0 mi Calm Calm - N/A   Scattered Clouds
4:15 PM 59.0 °F - 46.4 °F 63% 30.34 in 10.0 mi Calm Calm - N/A   Scattered Clouds
4:35 PM 59.0 °F - 46.4 °F 63% 30.34 in 10.0 mi Calm Calm - N/A   Mostly Cloudy
4:55 PM 57.2 °F - 46.4 °F 67% 30.35 in 10.0 mi Calm Calm - N/A   Overcast
5:15 PM 55.4 °F - 46.4 °F 72% 30.35 in 10.0 mi Calm Calm - N/A   Mostly Cloudy
5:35 PM 55.4 °F - 44.6 °F 67% 30.35 in 10.0 mi Calm Calm - N/A   Mostly Cloudy
5:55 PM 55.4 °F - 44.6 °F 67% 30.35 in 10.0 mi Calm Calm - N/A   Mostly Cloudy
6:15 PM 55.4 °F - 44.6 °F 67% 30.35 in 10.0 mi Calm Calm - N/A   Mostly Cloudy
6:35 PM 53.6 °F - 44.6 °F 72% 30.35 in 10.0 mi Calm Calm - N/A   Partly Cloudy
6:55 PM 51.8 °F - 46.4 °F 82% 30.36 in 10.0 mi Calm Calm - N/A   Scattered Clouds
7:15 PM 48.2 °F - 46.4 °F 93% 30.36 in 10.0 mi Calm Calm - N/A   Scattered Clouds
7:35 PM 48.2 °F - 46.4 °F 93% 30.35 in 10.0 mi Calm Calm - N/A   Scattered Clouds
7:55 PM 48.2 °F - 46.4 °F 93% 30.36 in 10.0 mi Calm Calm - N/A   Partly Cloudy
8:35 PM 48.2 °F - 46.4 °F 93% 30.36 in 10.0 mi Calm Calm - N/A   Mostly Cloudy
8:55 PM 46.4 °F - 46.4 °F 100% 30.37 in 10.0 mi Calm Calm - N/A   Mostly Cloudy
9:15 PM 46.4 °F - 46.4 °F 100% 30.37 in 10.0 mi Calm Calm - N/A   Mostly Cloudy
9:35 PM 46.4 °F - 46.4 °F 100% 30.38 in 10.0 mi Calm Calm - N/A   Mostly Cloudy
9:55 PM 46.4 °F - 46.4 °F 100% 30.37 in 10.0 mi Calm Calm - N/A   Mostly Cloudy
10:15 PM 46.4 °F - 46.4 °F 100% 30.36 in 10.0 mi Calm Calm - N/A   Mostly Cloudy
10:35 PM 48.2 °F - 46.4 °F 93% 30.37 in 10.0 mi Calm Calm - N/A   Mostly Cloudy
10:55 PM 46.4 °F - 46.4 °F 100% 30.36 in 10.0 mi Calm Calm - N/A   Mostly Cloudy
11:15 PM 46.4 °F - 46.4 °F 100% 30.37 in 10.0 mi Calm Calm - N/A   Scattered Clouds
11:35 PM 46.4 °F - 46.4 °F 100% 30.36 in 10.0 mi Calm Calm - N/A   Mostly Cloudy
11:55 PM 46.4 °F - 46.4 °F 100% 30.36 in 10.0 mi Calm Calm - N/A   Mostly Cloudy